Wetbulb
77.26 77.15 76.71 72.66 63.68 62.34 56.87 58.66 62.71 61.70 61.74 65.72 67.82 64.37 63.55 64.53 62.17 58.26 71.25 73.78 73.53 72.17 73.84 75.76 77.62 77.34 77.10 77.73 77.73 77.35 76.09 77.07 77.68 77.31 78.06 77.47 76.75 77.32 77.29 77.46 77.29 76.91 77.55 77.73 77.32 77.22 77.26 77.21 77.20
77.91 77.41 76.15 70.41 59.66 55.64 56.84 62.14 60.75 63.00 64.51 68.08 67.61 64.24 64.52 62.48 67.33 68.43 69.87 73.10 73.02 72.56 73.49 75.13 77.51 77.83 77.12 77.77 77.47 77.65 77.00 76.97 76.96 77.22 77.95 77.24 77.43 77.40 77.21 77.34 77.13 77.21 77.86 77.98 77.70 77.31 77.39 77.06 77.08
77.70 77.33 70.28 66.02 60.68 56.42 56.24 62.10 62.72 64.04 66.32 66.14 67.12 67.45 64.88 63.91 67.99 69.24 72.13 72.91 72.66 72.93 73.86 75.81 78.03 78.11 77.81 77.86 77.69 76.98 77.19 76.87 76.73 77.06 77.56 77.22 77.50 77.64 77.27 77.29 77.87 77.36 78.46 78.55 77.58 77.17 77.27 76.95 76.81
76.29 70.66 71.04 60.59 57.49 61.36 61.07 63.00 64.25 64.26 65.26 67.98 67.28 63.84 66.35 69.25 68.93 71.01 72.73 72.59 72.91 73.58 74.53 77.41 78.21 77.90 77.50 77.17 76.82 76.59 76.65 76.76 76.73 77.18 77.36 77.57 77.72 77.56 77.55 77.78 77.04 77.40 77.49 77.65 77.35 77.35 77.53 77.27 77.00
75.95 69.28 63.39 60.59 59.71 62.09 64.22 64.81 64.90 63.18 64.55 65.60 66.91 62.83 64.68 68.75 71.32 71.90 72.29 73.63 73.90 73.97 74.97 76.66 78.41 77.97 77.50 77.22 76.36 76.10 75.68 76.01 77.25 77.50 77.82 77.92 77.59 77.78 77.72 77.45 77.79 77.83 77.79 77.58 77.64 77.48 77.14 77.36 76.98
70.77 70.49 60.66 57.34 59.30 62.91 64.51 65.87 65.40 63.48 64.70 67.36 66.17 65.04 65.40 69.75 70.14 71.42 72.53 73.61 73.59 73.39 74.52 75.53 78.12 77.78 77.22 77.48 77.12 77.01 77.36 77.00 77.52 77.72 77.97 77.44 77.75 77.72 78.57 78.02 77.91 77.63 77.94 77.07 77.04 77.29 77.39 77.46 76.79
68.95 66.76 59.09 59.00 59.20 60.76 62.65 66.67 64.44 63.32 64.68 65.53 67.77 63.52 66.00 67.95 70.52 71.67 71.86 73.38 73.27 74.37 74.63 75.48 76.10 76.93 77.70 77.44 77.29 76.40 76.89 77.89 77.64 77.87 78.06 77.78 77.78 77.96 77.98 78.65 77.60 77.21 77.18 77.32 77.15 77.21 77.23 76.72 75.98
71.77 66.78 60.52 60.28 59.79 59.62 65.52 66.48 66.07 64.70 64.03 68.36 68.50 62.89 63.79 68.14 71.01 71.67 72.29 73.30 73.63 73.46 73.93 75.09 75.69 75.37 75.48 76.15 77.64 77.26 77.07 77.37 77.71 77.54 77.46 77.75 77.73 78.18 77.99 77.87 78.20 77.01 77.04 77.35 76.93 77.43 78.03 76.97 75.84
69.59 61.14 58.20 59.60 60.80 61.69 64.68 64.33 67.15 67.35 66.76 67.69 68.66 67.27 68.52 70.02 70.93 70.61 71.57 71.76 72.48 73.37 74.00 74.53 74.09 75.19 76.43 76.57 77.26 77.34 77.56 77.71 77.57 77.28 78.47 78.39 76.57 76.79 77.13 78.22 77.76 77.48 77.63 77.27 77.10 77.15 77.91 77.46 76.69
64.47 61.26 60.61 63.62 63.99 63.71 65.07 65.31 65.75 65.84 65.87 65.79 66.65 68.59 69.35 69.84 69.88 69.34 69.85 69.64 71.05 71.99 72.90 74.37 74.31 74.36 74.90 75.34 77.12 77.41 76.95 76.81 76.61 76.23 76.97 77.59 75.88 77.13 76.39 77.43 77.65 77.63 77.60 77.46 77.18 77.15 77.56 77.77 75.89
63.71 60.41 63.69 64.74 64.79 65.97 64.70 65.56 67.08 64.85 64.40 66.14 65.52 66.65 68.15 68.99 69.53 69.55 70.12 70.24 71.22 71.86 72.95 74.18 74.62 75.83 75.23 75.47 77.31 76.71 77.06 76.62 78.29 77.56 78.45 77.43 75.58 75.98 75.25 76.01 76.46 76.15 76.99 75.64 75.69 76.23 76.45 74.25 74.50
61.57 63.24 64.45 65.76 66.49 65.24 64.51 65.44 64.13 66.66 67.06 68.41 68.26 68.34 68.34 68.59 69.06 69.58 70.02 70.27 70.82 72.27 72.44 73.31 74.75 74.99 74.98 75.98 76.39 76.21 77.13 76.74 76.50 77.45 77.20 79.16 76.07 72.29 74.99 74.97 76.66 76.62 76.22 74.65 76.90 74.10 74.74 73.30 73.82
62.44 63.53 65.05 66.58 66.38 66.08 66.54 64.81 64.73 66.06 69.31 68.85 68.57 68.28 68.16 68.83 69.66 70.44 71.22 71.76 71.99 71.30 72.30 72.82 75.39 78.26 78.08 76.94 76.15 75.64 76.47 75.79 76.79 77.56 77.37 77.74 76.59 73.39 76.90 77.10 77.48 75.36 74.76 75.36 75.85 76.71 74.49 74.64 75.15
63.97 64.50 64.39 65.70 65.42 66.25 64.63 65.87 66.40 67.09 69.39 67.92 67.50 67.16 68.22 68.64 69.30 70.01 70.57 71.14 71.73 72.71 72.59 73.72 74.52 77.64 76.59 78.34 77.49 75.35 76.65 76.23 76.68 77.15 77.51 76.94 76.96 79.00 77.61 76.80 76.22 74.65 77.14 75.98 75.03 74.14 73.01 71.53 72.74
65.20 61.78 63.98 64.45 64.40 63.18 64.14 63.88 63.86 68.13 68.96 67.19 66.94 67.27 67.89 68.70 69.52 70.53 71.27 71.15 71.91 72.53 74.11 74.64 74.45 75.38 76.62 78.64 79.04 77.70 76.23 76.32 76.48 76.97 78.98 79.73 77.29 78.57 75.25 76.94 74.49 74.43 76.45 75.19 74.97 73.81 72.50 73.85 73.49
62.09 62.76 58.56 62.52 60.53 63.44 62.12 59.39 65.77 68.24 68.28 67.29 67.17 67.21 67.77 68.69 69.68 71.23 71.45 72.84 74.24 73.37 74.50 74.86 74.46 74.09 74.97 75.44 77.77 77.13 77.50 75.49 75.88 76.14 77.75 79.17 79.42 79.70 79.65 75.85 75.59 75.53 76.42 77.25 74.68 75.49 75.49 75.35 72.73
59.70 56.39 57.29 60.39 62.58 62.78 62.09 61.46 66.42 67.99 68.02 67.81 67.85 67.00 67.49 69.07 70.94 72.09 71.68 72.61 72.69 74.46 75.05 75.82 76.76 74.80 75.77 77.14 76.33 77.63 78.00 78.34 75.32 76.79 76.58 79.31 78.81 79.68 79.43 77.00 74.79 75.85 75.89 74.21 76.07 75.68 74.74 74.67 73.88
54.71 54.61 55.04 55.21 59.28 63.51 61.85 62.38 66.49 67.64 67.78 67.65 68.57 67.96 68.57 69.10 69.97 72.03 72.41 72.85 73.24 75.30 76.11 76.92 76.42 77.77 77.14 76.98 78.40 76.36 76.34 75.54 77.51 75.35 76.51 78.46 78.51 78.27 79.34 78.95 78.78 78.49 76.95 75.11 76.62 74.86 75.79 75.57 74.82
56.68 55.71 54.64 56.33 57.89 56.47 57.89 61.81 64.09 66.27 67.64 67.47 67.99 68.54 68.59 69.16 71.40 72.69 72.36 72.70 73.47 75.35 75.78 76.04 76.90 79.27 76.47 75.58 75.08 74.93 74.85 75.64 75.51 76.96 77.97 78.31 79.82 78.16 78.33 77.21 77.56 78.04 77.86 76.48 76.82 74.60 74.92 73.29 74.15
56.23 55.71 55.09 56.59 57.53 55.33 55.66 56.34 63.58 65.03 65.19 67.82 68.03 68.40 68.88 69.60 70.44 71.87 72.03 72.98 73.18 74.91 75.75 76.47 76.75 77.99 77.42 76.85 76.39 76.96 76.94 76.19 76.60 76.04 76.76 79.23 79.85 77.51 77.55 77.19 77.26 75.72 76.38 75.02 74.70 74.71 73.03 74.45 73.55
55.68 54.85 53.80 52.26 54.76 55.85 54.98 54.39 56.66 62.73 65.49 66.36 68.63 69.39 69.58 69.73 70.42 71.34 72.09 72.56 73.62 74.86 76.28 76.66 77.07 77.49 77.12 77.96 78.17 79.52 79.57 80.26 77.89 76.33 77.22 78.72 79.17 79.13 79.47 78.48 78.00 78.20 76.88 75.92 76.33 76.00 75.69 73.12 74.63
53.66 56.62 55.58 53.31 52.35 49.84 55.04 49.76 57.66 57.95 61.18 64.89 65.83 67.63 69.11 69.81 70.92 72.10 71.60 71.89 72.68 75.22 76.84 77.89 77.81 77.93 77.64 78.41 76.77 78.26 75.88 74.90 75.24 76.26 77.04 77.81 79.05 78.71 79.39 79.24 79.17 79.95 79.07 78.66 75.04 77.08 76.93 76.27 73.90
54.88 57.11 54.66 54.02 52.50 51.91 52.35 51.52 54.94 56.85 58.02 60.97 63.12 66.05 67.77 70.38 70.69 70.61 71.69 72.89 73.36 74.81 76.12 77.96 78.33 77.88 77.96 77.66 79.14 77.53 77.60 77.67 77.74 76.90 79.30 78.67 78.88 79.36 79.22 79.05 79.74 79.58 78.86 78.76 77.83 77.30 76.30 77.19 75.51
57.48 55.34 54.88 54.79 53.02 48.27 51.34 52.23 54.00 55.11 57.63 59.59 61.55 63.42 65.47 68.85 71.10 72.23 72.91 73.97 74.03 75.02 75.62 76.84 78.29 78.36 78.47 77.96 77.38 79.25 77.33 77.56 77.83 77.25 77.54 74.71 77.77 78.02 79.56 79.77 79.28 78.78 78.51 78.44 78.77 78.19 78.72 77.30 76.93
55.83 52.52 48.39 48.39 48.24 47.72 52.54 52.61 53.92 57.87 61.54 62.28 62.73 64.02 65.50 66.95 68.82 71.89 72.35 72.82 73.81 74.22 74.84 75.98 78.04 78.13 78.41 78.38 77.66 77.21 79.05 78.50 78.59 79.85 75.07 77.18 75.87 76.43 77.56 79.22 79.26 78.93 78.84 79.01 79.74 78.75 78.15 78.31 76.51
54.86 53.10 49.33 46.45 47.10 48.40 52.86 50.88 53.69 60.25 63.48 65.48 67.00 67.95 67.54 67.17 68.09 69.37 72.33 72.95 74.17 74.94 75.66 76.04 77.73 78.18 79.19 78.79 78.24 78.49 78.18 78.53 78.81 79.09 77.85 77.71 75.98 76.40 77.57 79.40 79.42 79.01 79.29 79.02 79.79 78.70 77.12 77.31 76.90
54.49 52.19 54.69 50.07 51.45 48.89 50.85 53.81 57.61 61.85 62.37 65.21 67.92 69.15 69.01 65.55 67.46 68.07 72.25 74.09 75.02 75.22 76.00 76.39 77.95 78.12 78.50 79.09 79.35 78.95 79.14 78.46 78.20 79.40 80.06 78.11 80.21 78.21 79.41 79.27 79.36 79.59 79.11 79.37 79.53 77.10 77.02 76.70 76.95
54.95 56.05 50.29 52.20 48.24 46.40 50.22 52.22 53.88 59.22 60.26 64.64 66.96 68.90 70.92 69.51 68.15 67.14 71.62 72.79 74.37 74.85 75.51 76.82 78.12 77.98 78.27 78.33 79.13 79.35 79.20 79.50 79.20 79.56 79.87 79.99 79.20 79.83 80.80 81.21 80.57 79.86 79.98 80.03 79.53 77.29 77.86 77.41 76.32
53.79 53.26 53.36 52.84 52.26 48.08 47.60 50.94 58.87 60.00 60.90 63.98 66.65 68.95 71.37 72.38 72.26 72.04 71.65 73.58 73.90 74.33 75.47 75.72 76.02 76.93 77.59 77.89 78.46 78.43 78.77 79.10 79.81 79.16 79.14 80.43 79.54 80.77 81.62 80.82 80.34 79.87 79.59 79.10 79.54 78.75 78.33 77.82 77.14
57.08 55.04 55.10 50.95 51.29 51.74 50.89 51.47 60.01 61.06 62.35 63.97 66.79 68.13 70.35 72.68 73.65 74.25 74.22 75.23 77.10 78.37 78.51 77.34 76.80 76.08 77.44 80.05 79.62 79.39 79.32 79.63 78.59 78.27 79.00 79.83 79.87 80.57 80.84 80.80 80.73 78.87 79.05 80.00 79.05 78.25 77.75 77.06 76.39
MSLP
1010.18 1009.54 1009.32 1007.20 1009.73 1008.76 1006.51 1005.15 1004.03 1003.70 1004.10 1005.05 1006.41 1008.46 1008.51 1009.34 1008.81 1009.52 1010.46 1012.08 1013.13 1014.48 1015.70 1016.17 1016.55 1016.82 1017.00 1017.12 1017.26 1017.44 1017.49 1017.59 1017.74 1017.87 1018.05 1018.23 1018.44 1018.58 1018.70 1018.78 1018.88 1018.79 1018.92 1018.96 1019.05 1019.24 1019.33 1019.49 1019.45
1009.15 1008.58 1009.76 1009.29 1008.29 1006.46 1005.78 1004.83 1004.28 1003.98 1004.73 1005.54 1007.17 1009.44 1008.20 1008.93 1008.53 1009.18 1010.43 1011.82 1013.02 1014.39 1015.30 1016.13 1016.70 1016.94 1017.18 1017.34 1017.56 1017.69 1017.78 1017.81 1017.97 1018.33 1018.42 1018.61 1018.76 1018.83 1018.91 1019.00 1019.08 1019.13 1019.13 1019.14 1019.32 1019.46 1019.53 1019.63 1019.67
1009.53 1009.29 1010.21 1008.45 1006.36 1005.56 1004.80 1004.34 1004.32 1004.58 1004.77 1005.50 1006.99 1007.81 1008.53 1008.99 1009.11 1009.88 1010.83 1011.69 1012.64 1013.75 1015.23 1016.55 1016.87 1017.09 1017.28 1017.52 1017.74 1017.93 1018.04 1018.11 1018.36 1018.70 1018.65 1018.83 1018.80 1018.92 1019.17 1019.29 1019.21 1019.31 1019.28 1019.38 1019.57 1019.73 1019.75 1019.78 1019.72
1008.84 1009.53 1009.37 1007.61 1005.88 1004.82 1004.41 1004.42 1004.58 1004.47 1004.59 1005.27 1007.08 1007.96 1008.80 1008.80 1009.65 1010.52 1010.93 1011.79 1012.65 1014.14 1015.62 1016.68 1016.92 1017.18 1017.46 1017.72 1017.80 1018.04 1018.17 1018.37 1018.53 1018.78 1018.89 1018.97 1019.03 1019.18 1019.37 1019.41 1019.52 1019.57 1019.62 1019.69 1019.80 1019.90 1019.87 1019.93 1019.94
1008.29 1009.55 1007.83 1005.66 1004.77 1004.20 1004.00 1003.90 1004.15 1004.37 1004.53 1005.14 1006.62 1008.04 1008.73 1009.25 1010.14 1010.69 1010.95 1012.09 1013.11 1014.69 1015.87 1016.63 1017.09 1017.35 1017.65 1017.80 1018.04 1018.31 1018.43 1018.55 1018.71 1018.86 1018.96 1019.03 1019.16 1019.33 1019.54 1019.59 1019.59 1019.76 1019.76 1019.93 1019.96 1020.06 1020.10 1020.10 1020.11
1005.85 1006.27 1006.04 1004.55 1004.21 1003.89 1003.75 1005.26 1003.91 1004.53 1005.07 1005.92 1007.22 1008.22 1009.26 1010.00 1010.38 1010.57 1010.90 1012.27 1013.02 1014.27 1015.66 1016.66 1017.27 1017.50 1017.73 1017.91 1018.13 1018.32 1018.45 1018.57 1018.80 1018.94 1019.08 1019.23 1019.30 1019.40 1019.48 1019.62 1019.68 1019.81 1019.87 1020.08 1020.28 1020.37 1020.40 1020.40 1020.46
1005.84 1005.07 1003.63 1003.67 1003.76 1004.03 1003.83 1003.21 1003.58 1004.50 1004.92 1005.95 1007.48 1008.48 1009.69 1010.14 1010.53 1010.49 1010.87 1011.78 1012.74 1013.96 1015.31 1016.43 1017.19 1017.62 1017.80 1018.01 1018.28 1018.49 1018.65 1018.68 1018.83 1018.96 1019.05 1019.24 1019.39 1019.51 1019.62 1019.63 1019.86 1019.91 1020.01 1020.27 1020.49 1020.59 1020.64 1020.70 1020.71
1003.19 1002.95 1002.67 1002.89 1003.29 1003.66 1003.37 1003.94 1003.70 1004.10 1005.23 1006.08 1007.20 1008.58 1009.53 1010.25 1010.45 1010.48 1010.97 1011.89 1012.78 1013.52 1014.53 1015.68 1016.63 1017.28 1017.70 1018.07 1018.30 1018.61 1018.82 1018.87 1018.90 1019.02 1019.15 1019.31 1019.36 1019.53 1019.66 1019.81 1019.91 1019.99 1020.16 1020.40 1020.52 1020.66 1020.82 1020.97 1020.90
1003.00 1002.02 1002.30 1002.34 1002.80 1003.15 1003.16 1003.36 1003.93 1004.75 1005.58 1005.70 1006.53 1008.25 1009.40 1010.27 1010.47 1010.55 1011.34 1012.24 1012.72 1013.53 1014.47 1014.89 1015.94 1016.78 1017.29 1017.93 1018.27 1018.52 1018.79 1019.00 1019.10 1019.13 1019.10 1019.18 1019.13 1019.31 1019.58 1019.94 1019.97 1020.06 1020.25 1020.40 1020.48 1020.78 1020.87 1020.85 1020.69
1002.46 1002.40 1002.10 1002.41 1002.59 1002.62 1003.13 1003.58 1004.05 1004.49 1005.29 1005.93 1007.20 1008.71 1009.76 1010.26 1010.57 1010.68 1011.28 1011.96 1012.79 1013.31 1014.19 1014.62 1015.21 1015.95 1016.61 1017.08 1018.05 1018.28 1018.58 1018.75 1018.85 1018.79 1019.06 1018.95 1018.93 1019.00 1019.31 1019.76 1019.91 1020.08 1020.32 1020.40 1020.57 1020.61 1020.78 1020.50 1020.35
1001.82 1002.15 1002.19 1002.53 1002.69 1002.69 1003.36 1003.45 1003.68 1003.77 1005.09 1006.36 1007.76 1008.95 1009.86 1010.32 1010.57 1010.72 1011.10 1011.55 1012.37 1012.93 1013.64 1014.38 1015.10 1015.62 1015.92 1016.60 1017.29 1017.54 1018.05 1018.28 1018.51 1018.50 1018.73 1018.64 1018.60 1019.03 1019.09 1019.57 1019.73 1020.04 1020.31 1020.41 1020.45 1020.49 1020.71 1020.52 1020.45
1001.56 1001.83 1002.58 1003.05 1002.87 1003.10 1003.05 1003.28 1003.80 1004.13 1005.17 1006.50 1008.00 1009.20 1009.77 1010.23 1010.37 1010.55 1010.91 1011.70 1012.00 1012.79 1013.55 1014.06 1014.99 1015.39 1015.62 1016.08 1016.46 1016.95 1017.48 1017.89 1018.32 1018.22 1018.36 1018.26 1018.68 1019.26 1019.63 1019.18 1019.12 1019.55 1020.26 1020.07 1020.12 1020.15 1020.52 1020.37 1020.80
1001.39 1001.94 1002.57 1003.49 1003.37 1003.61 1003.49 1003.94 1004.54 1004.93 1005.80 1006.93 1007.98 1009.10 1009.67 1010.04 1010.29 1010.34 1010.54 1011.14 1011.84 1012.75 1013.42 1014.18 1014.99 1015.56 1015.63 1016.23 1016.51 1016.69 1017.46 1017.73 1017.93 1018.03 1018.33 1018.50 1018.73 1019.33 1018.95 1018.72 1018.78 1019.12 1019.47 1019.49 1020.12 1020.15 1020.22 1020.51 1020.00
1001.29 1001.89 1002.77 1003.13 1003.49 1003.51 1004.19 1004.39 1004.64 1005.42 1006.16 1007.12 1008.09 1008.80 1009.28 1009.65 1010.01 1010.33 1010.53 1011.13 1011.77 1012.60 1013.23 1014.27 1015.22 1015.72 1015.82 1016.22 1016.39 1016.46 1016.92 1017.19 1017.53 1017.88 1018.31 1018.66 1018.77 1018.66 1018.78 1018.77 1018.75 1018.92 1019.11 1019.15 1019.79 1020.26 1020.58 1021.00 1020.82
1001.50 1003.45 1003.10 1003.07 1004.86 1005.23 1005.90 1004.59 1004.82 1005.48 1006.20 1007.09 1007.79 1008.41 1008.90 1009.26 1009.73 1010.21 1010.58 1011.27 1011.71 1012.48 1013.24 1014.25 1015.25 1015.73 1016.34 1016.36 1016.40 1016.24 1016.28 1016.92 1017.26 1017.72 1018.13 1018.41 1018.62 1018.79 1019.01 1019.02 1019.06 1019.15 1019.11 1019.32 1019.90 1020.25 1020.60 1020.91 1020.94
1001.24 1002.39 1003.03 1004.93 1007.38 1007.67 1007.40 1005.24 1004.81 1005.35 1005.93 1006.66 1007.28 1007.97 1008.57 1009.02 1009.55 1010.31 1010.75 1011.31 1011.79 1012.36 1013.26 1014.10 1014.62 1015.52 1016.19 1016.46 1016.67 1016.41 1016.17 1016.68 1017.29 1017.58 1018.03 1018.35 1018.66 1018.71 1018.83 1019.01 1018.99 1018.92 1018.96 1019.05 1019.59 1019.99 1020.66 1020.93 1021.13
1000.13 1001.18 1002.33 1005.30 1005.81 1005.90 1005.43 1005.22 1004.14 1004.80 1005.35 1006.20 1006.93 1007.61 1008.21 1008.81 1009.37 1010.25 1010.79 1011.36 1011.84 1012.40 1013.25 1014.09 1014.47 1015.04 1015.76 1016.20 1016.55 1016.32 1016.24 1016.55 1017.30 1017.54 1017.72 1018.16 1018.55 1018.78 1018.87 1018.77 1018.98 1018.84 1019.05 1019.05 1019.24 1019.81 1020.32 1020.73 1021.07
999.70 1000.08 1001.49 1002.60 1003.45 1003.98 1004.22 1003.52 1003.72 1003.73 1004.49 1005.54 1006.45 1007.09 1007.82 1008.52 1009.09 1009.98 1010.56 1011.16 1011.68 1012.33 1013.29 1014.07 1014.56 1015.00 1015.51 1015.96 1016.28 1016.20 1016.30 1016.54 1016.84 1017.26 1017.71 1018.03 1018.22 1018.51 1018.81 1018.80 1018.87 1018.89 1018.93 1019.26 1019.42 1019.70 1020.21 1020.47 1020.80
1000.26 1000.51 1000.76 1001.41 1002.21 1002.46 1002.10 1002.19 1002.62 1002.91 1003.38 1004.56 1005.67 1006.42 1007.34 1008.03 1008.70 1009.47 1010.15 1010.81 1011.41 1012.23 1013.17 1014.00 1014.54 1014.94 1015.45 1016.00 1016.24 1016.20 1016.17 1016.43 1017.00 1017.20 1017.60 1017.84 1018.08 1018.32 1018.95 1019.24 1019.18 1019.15 1019.08 1019.53 1019.89 1020.07 1020.30 1020.33 1020.23
1000.63 1000.24 1000.20 1000.77 1001.54 1001.94 1001.81 1001.64 1001.66 1002.21 1002.66 1003.31 1004.40 1005.45 1006.33 1007.22 1008.01 1008.86 1009.62 1010.24 1010.82 1011.88 1012.82 1013.75 1014.40 1014.92 1015.40 1015.79 1016.10 1016.00 1015.98 1016.07 1016.36 1016.79 1017.15 1017.43 1017.59 1018.14 1018.54 1018.88 1019.06 1019.06 1019.28 1019.29 1019.77 1019.97 1020.34 1020.39 1020.55
1000.35 999.94 1000.44 1001.02 1001.04 1000.76 1001.06 1001.15 1001.30 1001.33 1001.85 1002.55 1003.05 1003.93 1004.98 1006.11 1007.13 1008.20 1008.93 1009.39 1010.22 1011.17 1012.23 1013.18 1013.89 1014.55 1015.19 1015.47 1015.76 1015.84 1015.85 1015.90 1016.07 1016.66 1016.88 1016.88 1017.19 1017.54 1017.90 1018.20 1018.37 1018.62 1018.76 1019.12 1019.39 1019.57 1019.81 1020.25 1020.35
999.95 1000.42 1000.62 1000.75 1000.66 999.89 1000.07 1000.29 1000.63 1000.61 1000.96 1001.81 1002.35 1002.61 1003.55 1004.75 1006.01 1007.09 1007.97 1008.73 1009.44 1010.27 1011.32 1012.52 1013.50 1014.19 1014.79 1015.13 1015.35 1015.53 1015.64 1015.77 1015.96 1016.06 1016.25 1016.38 1016.59 1016.88 1017.07 1017.50 1017.76 1017.99 1018.23 1018.63 1018.76 1019.04 1019.38 1019.82 1020.01
1000.21 1000.52 1000.62 1000.44 1000.36 999.85 999.45 999.67 1000.61 1000.47 1000.48 1000.86 1001.33 1001.44 1001.93 1002.99 1004.31 1005.61 1006.75 1007.72 1008.31 1009.47 1010.60 1011.57 1012.82 1013.67 1014.30 1014.81 1015.03 1015.33 1015.49 1015.36 1015.55 1015.59 1015.58 1015.87 1016.29 1016.49 1016.57 1016.76 1017.02 1017.43 1017.58 1018.06 1018.31 1018.62 1018.92 1019.28 1019.39
1000.85 1000.69 1000.25 999.90 999.39 999.11 999.28 999.49 1000.74 1000.48 1000.63 1000.60 1000.56 1000.42 1000.84 1001.48 1002.55 1003.97 1005.39 1006.57 1007.60 1008.58 1009.54 1010.56 1011.83 1012.88 1013.73 1014.36 1014.69 1014.92 1015.15 1015.23 1015.15 1015.25 1015.35 1015.49 1015.87 1015.97 1015.95 1016.14 1016.69 1016.90 1017.13 1017.49 1017.80 1018.02 1018.24 1018.60 1018.81
1000.42 999.95 999.14 999.00 998.46 999.37 999.23 999.63 1000.28 1000.56 1000.67 1000.60 1000.51 1000.45 1000.49 1000.90 1001.50 1002.63 1004.06 1005.32 1006.46 1007.44 1008.59 1009.69 1011.08 1012.14 1013.04 1013.67 1014.21 1014.50 1014.64 1014.92 1014.96 1015.11 1015.46 1015.37 1015.75 1015.55 1015.51 1015.74 1016.30 1016.79 1016.89 1016.91 1017.08 1017.72 1018.02 1018.13 1018.29
999.46 999.32 998.35 998.12 997.88 998.84 999.42 999.70 1000.46 1000.30 1000.62 1000.69 1000.38 1000.32 1000.52 1000.32 1000.46 1001.30 1002.73 1003.94 1005.33 1006.53 1007.76 1008.77 1010.20 1011.31 1012.13 1012.96 1013.57 1014.01 1014.39 1014.42 1014.54 1014.57 1014.59 1014.63 1014.80 1014.55 1014.39 1015.14 1015.46 1015.95 1016.19 1016.62 1016.77 1017.42 1017.64 1017.74 1017.83
999.35 999.07 998.74 998.27 998.26 998.54 999.65 1000.05 1000.47 1000.77 1001.12 1001.11 1001.29 1001.44 1001.52 1000.76 1000.12 1000.88 1001.79 1003.50 1004.66 1005.86 1006.99 1008.10 1009.27 1010.49 1011.25 1012.05 1012.86 1013.40 1013.79 1014.15 1014.00 1014.13 1014.11 1014.25 1014.26 1014.17 1014.28 1014.58 1015.03 1015.33 1015.65 1015.92 1016.55 1016.82 1017.11 1017.37 1017.56
999.83 999.90 999.04 998.45 998.47 998.88 999.61 999.87 1001.07 1001.40 1001.59 1001.68 1002.26 1002.55 1002.52 1001.99 1001.32 1000.98 1001.84 1003.14 1004.29 1005.28 1006.49 1007.68 1008.69 1009.83 1010.63 1011.17 1011.86 1012.44 1012.96 1013.37 1013.71 1013.97 1013.78 1013.70 1013.76 1013.71 1013.87 1014.35 1014.60 1014.85 1015.10 1015.48 1016.01 1016.33 1016.51 1016.78 1016.97
999.50 999.33 999.26 998.64 999.04 999.25 999.60 1000.61 1001.22 1001.72 1001.74 1002.02 1002.95 1003.64 1003.81 1003.39 1003.02 1002.78 1002.75 1003.28 1004.43 1005.25 1005.94 1007.55 1008.74 1009.45 1009.93 1010.32 1010.77 1011.42 1012.07 1012.66 1013.01 1013.15 1013.31 1013.32 1013.55 1013.92 1013.88 1014.49 1014.76 1014.79 1014.91 1015.09 1015.41 1015.82 1016.04 1016.10 1016.06
999.03 999.07 998.88 998.91 999.41 999.89 1000.10 1001.12 1001.43 1001.65 1001.71 1002.23 1003.16 1003.92 1004.61 1004.65 1004.64 1004.54 1004.52 1005.35 1005.41 1005.84 1006.18 1007.14 1008.35 1009.40 1009.42 1009.64 1010.13 1010.56 1011.24 1011.72 1011.98 1012.47 1012.58 1012.99 1013.56 1013.90 1014.32 1014.53 1014.75 1015.06 1014.95 1014.82 1015.02 1015.40 1015.59 1015.66 1015.64
Wind_Speed
11 12 8 5 2 4 7 14 12 15 17 15 31 25 7 7 3 15 18 25 24 20 17 14 13 13 13 13 12 13 12 12 11 11 11 12 11 11 10 11 11 12 14 15 15 13 15 12 13
8 7 2 2 3 12 9 16 14 14 16 14 29 17 12 15 23 23 18 26 24 19 17 15 13 12 14 12 12 13 13 11 10 11 11 11 12 12 12 12 12 13 14 14 16 14 14 12 10
8 10 3 6 4 9 9 14 16 12 7 13 18 18 17 20 20 21 19 24 23 20 19 15 14 12 13 12 11 12 12 10 10 11 12 11 12 13 13 12 14 14 13 15 15 14 12 12 10
8 6 3 5 14 16 15 14 12 9 11 17 14 14 20 18 23 20 21 22 20 21 19 15 14 13 13 12 11 12 10 11 10 11 12 11 14 13 13 12 14 15 15 14 14 13 12 11 8
8 4 5 8 15 15 12 10 14 8 9 14 24 22 17 22 22 18 18 22 23 20 17 15 13 12 12 11 12 12 9 10 10 10 12 12 12 12 13 12 14 13 12 13 14 13 12 10 8
7 6 4 12 15 14 10 17 12 15 12 20 21 19 17 20 18 16 18 23 19 20 18 14 13 12 11 11 12 13 14 12 10 10 13 12 12 10 13 13 12 12 12 12 11 10 11 9 7
10 6 10 14 13 12 5 3 14 13 13 20 19 20 18 17 16 15 16 18 19 21 18 14 13 11 12 12 11 12 12 13 12 11 12 12 12 10 13 11 12 11 10 10 10 9 8 8 7
6 6 14 14 13 11 7 22 6 17 13 22 21 16 17 17 15 14 17 18 16 18 18 15 13 11 10 9 11 11 10 10 11 11 11 13 13 12 13 11 10 9 10 11 8 8 9 7 5
14 7 9 14 14 6 9 11 17 12 13 3 14 19 20 18 15 14 18 15 13 14 15 16 15 12 10 11 9 10 11 11 9 9 11 11 8 9 10 11 10 10 11 11 10 10 11 9 6
4 10 19 14 12 7 14 12 10 10 12 8 23 21 21 18 15 15 16 13 14 14 16 17 12 14 13 11 10 9 10 8 8 7 7 6 4 6 10 10 11 10 10 10 10 11 12 11 5
14 12 16 16 14 14 12 8 10 8 16 15 20 22 20 18 14 13 14 15 18 15 11 15 12 9 13 10 9 6 6 5 4 7 7 9 8 8 7 5 5 5 8 5 8 7 5 2 3
11 15 14 8 2 15 10 12 12 14 17 18 20 20 18 18 15 15 14 11 12 16 13 14 13 9 11 8 6 7 5 5 4 5 3 1 4 8 3 4 6 5 5 6 2 3 4 5 5
11 9 12 9 3 5 12 13 17 14 17 17 20 19 17 16 14 12 13 16 15 13 12 16 7 7 5 8 4 4 7 6 7 4 5 3 1 8 6 4 2 4 7 6 7 3 4 5 5
4 9 11 10 11 1 8 4 14 13 17 18 19 18 17 16 14 11 10 9 14 13 11 17 11 6 5 3 4 4 9 8 7 6 7 6 4 2 3 2 2 3 2 5 5 3 3 2 4
20 10 13 13 38 13 22 5 12 15 17 17 18 16 15 15 14 11 10 10 12 12 12 14 13 10 6 4 0 3 4 6 6 5 6 5 4 5 4 3 2 1 2 7 6 4 3 3 1
16 11 9 28 20 8 13 2 15 16 16 16 17 15 14 14 14 12 10 10 8 10 11 12 13 13 10 9 4 4 2 6 6 6 7 4 4 2 2 5 4 3 3 3 5 5 5 5 4
14 14 6 21 31 21 10 6 18 16 15 14 14 15 14 13 13 13 13 12 11 10 11 10 6 13 10 10 5 5 4 3 6 3 7 6 6 5 4 3 3 4 3 3 2 3 4 3 3
0 10 6 6 8 19 20 17 15 16 17 14 14 14 13 14 14 15 14 14 13 11 12 8 6 10 9 7 5 4 4 3 2 5 5 6 5 6 3 2 2 1 1 2 3 2 1 2 4
8 8 1 8 5 9 10 13 16 15 15 17 13 14 14 15 14 16 15 15 15 12 13 11 9 7 7 7 5 6 5 4 4 4 8 7 5 5 5 3 3 4 4 3 2 1 4 4 4
7 12 9 7 6 5 6 7 13 15 11 17 16 15 17 16 17 16 16 16 17 15 14 13 11 9 7 6 6 5 5 6 7 6 9 9 6 7 6 5 5 6 5 4 4 4 2 2 3
12 7 10 7 8 14 10 10 9 14 17 10 15 18 17 17 17 16 17 17 15 17 16 14 13 13 10 9 5 4 4 2 4 6 7 8 9 6 7 6 6 3 3 5 5 6 6 3 3
6 8 6 6 8 8 13 6 11 14 16 15 14 14 17 20 17 18 20 19 19 17 17 16 14 13 12 10 8 7 6 5 4 5 7 9 10 10 8 8 6 5 4 1 5 4 4 5 4
11 10 8 9 8 13 7 3 4 5 11 16 12 17 18 20 22 21 21 19 19 16 17 16 16 14 13 12 8 8 8 6 5 4 5 6 9 9 10 9 8 6 4 5 6 6 5 4 4
9 12 15 16 14 10 4 5 5 7 5 5 6 5 12 19 21 21 20 19 16 17 16 17 18 15 14 14 13 9 11 9 5 6 2 5 6 9 8 7 9 7 7 6 4 6 6 6 5
12 16 12 12 7 5 6 11 9 8 6 3 4 7 7 9 15 21 20 18 18 19 18 16 18 16 16 15 14 13 10 11 8 4 10 6 4 4 9 8 7 7 8 6 4 4 5 5 5
11 11 9 3 2 11 6 8 7 9 8 6 8 14 9 11 16 20 21 20 19 17 18 17 19 16 16 15 14 12 12 8 8 7 7 4 5 8 5 10 8 8 7 9 6 4 6 7 7
2 6 10 10 5 1 6 11 10 11 7 8 13 10 13 12 4 8 20 15 17 16 15 15 16 17 16 15 12 12 11 12 9 9 8 8 6 5 8 10 10 10 9 7 7 6 8 7 6
11 9 7 7 1 3 8 11 9 9 4 12 11 13 10 8 9 5 17 16 13 16 17 14 13 16 14 13 14 11 12 11 11 9 8 7 9 8 5 4 4 6 7 7 7 7 8 7 7
9 10 5 4 5 4 3 6 12 7 4 13 13 9 9 11 12 11 6 11 12 10 13 14 8 6 12 13 11 13 12 11 11 11 10 8 8 6 5 5 5 6 7 7 6 8 8 7 8
8 10 7 7 4 8 5 10 12 4 8 14 14 11 9 6 4 7 8 8 6 2 4 9 12 13 12 8 9 9 10 10 13 12 10 9 8 6 6 6 6 9 8 7 8 10 10 9 11
Wind_Direction
183 200 213 131 244 200 116 86 99 86 77 58 63 41 101 123 85 102 132 117 123 120 127 122 117 113 115 112 113 115 109 100 96 80 78 84 85 95 99 100 105 99 99 109 107 104 105 103 111
201 202 78 289 200 98 101 68 64 78 90 86 88 98 92 115 99 109 116 119 120 133 123 120 117 116 116 118 118 114 113 101 91 85 86 88 97 98 101 108 109 103 102 106 108 108 104 111 106
245 246 337 294 98 87 93 79 83 98 128 91 97 76 101 107 115 115 122 119 131 126 111 122 122 117 113 113 114 117 118 115 98 92 93 100 98 95 97 108 103 110 102 97 99 105 107 109 116
217 21 247 245 89 84 78 86 98 141 93 99 98 87 101 103 105 125 131 130 124 113 113 126 123 119 114 110 124 122 127 117 108 97 100 104 100 105 105 107 105 105 98 108 112 108 110 110 116
168 201 270 110 91 85 93 111 128 125 69 95 102 106 92 98 119 130 132 108 111 114 121 122 122 117 113 111 108 116 122 128 111 105 102 96 103 105 110 109 109 102 110 101 103 109 114 116 117
209 183 245 83 97 85 75 79 81 67 89 87 100 109 106 116 127 146 127 120 131 126 112 125 121 119 113 112 107 114 121 126 119 117 108 108 109 118 108 117 119 117 112 116 110 109 119 121 121
220 306 77 82 81 78 79 52 94 104 113 103 109 116 122 135 141 141 129 122 109 116 125 140 129 125 123 115 121 121 127 129 126 122 119 118 119 121 108 109 111 118 121 117 117 121 127 127 131
275 203 45 73 85 121 195 62 317 96 79 116 122 135 138 134 151 138 129 119 128 134 138 138 134 142 143 141 131 135 142 137 134 134 142 135 131 129 125 120 115 115 127 122 127 134 133 130 149
311 49 103 78 98 113 106 68 72 108 136 115 118 139 135 147 153 142 116 134 138 119 132 144 141 158 140 129 140 141 147 150 149 155 163 164 141 145 133 109 125 127 133 129 134 137 144 145 187
72 50 72 77 109 97 102 88 122 137 97 102 116 123 137 150 159 148 139 138 135 149 155 129 139 140 161 130 158 159 158 166 182 175 185 202 109 140 122 133 145 147 150 153 146 159 164 185 182
80 89 62 57 72 84 93 145 139 130 122 121 128 138 150 152 165 157 150 151 156 149 150 140 138 167 163 136 177 160 168 183 140 181 197 196 139 149 143 146 167 169 179 179 174 168 187 43 313
74 97 99 109 125 91 106 85 55 67 106 122 137 144 154 160 172 163 160 145 140 136 124 124 140 198 139 157 161 142 146 142 172 156 228 153 79 55 281 167 184 183 120 247 198 149 165 195 164
102 97 107 114 149 73 58 93 94 90 106 124 139 151 159 166 172 170 160 152 138 144 153 127 142 62 100 110 160 161 153 154 180 156 138 115 53 162 200 192 135 167 174 204 126 55 47 49 22
117 126 120 154 120 146 71 148 106 114 121 132 147 159 165 169 176 162 160 148 141 148 157 123 133 113 120 250 173 186 162 174 157 181 136 146 217 29 129 163 235 328 235 98 95 98 94 78 53
106 151 274 106 13 29 0 124 109 128 132 142 157 167 167 172 173 160 160 155 148 155 142 132 140 159 136 117 323 279 150 172 132 130 127 165 188 164 178 221 198 292 214 111 128 152 160 114 124
140 193 175 104 129 287 134 138 131 147 147 154 157 167 165 171 168 161 169 156 163 160 139 147 161 158 162 147 228 262 241 168 145 150 140 206 110 221 208 186 209 209 163 166 170 178 163 148 149
168 197 180 134 162 163 127 240 149 159 153 161 158 169 170 173 166 163 173 166 176 152 142 146 176 155 163 138 187 248 197 68 137 164 143 159 184 175 283 285 167 196 174 212 205 135 154 138 170
11 130 117 75 128 176 140 188 159 167 156 162 172 176 174 178 178 166 174 172 175 148 143 155 173 132 156 145 167 225 161 144 172 130 147 168 178 172 202 316 327 210 177 215 35 75 171 162 205
357 346 355 117 101 321 331 143 165 173 167 160 182 181 178 183 182 166 178 176 167 155 155 167 176 154 151 152 207 198 197 175 150 138 151 169 179 162 200 239 228 253 245 210 161 235 242 255 190
276 262 36 95 133 226 275 298 164 166 176 168 177 182 181 188 180 176 188 177 177 167 163 167 181 163 173 186 200 210 213 187 167 157 176 178 172 173 196 198 214 223 258 184 233 204 237 263 203
232 273 39 330 305 250 225 211 231 177 161 182 187 179 187 186 184 187 187 187 189 167 168 172 179 172 185 192 200 213 215 255 158 163 181 179 182 201 191 200 232 207 239 204 192 207 194 218 202
349 33 319 292 293 311 199 113 192 208 164 167 195 195 184 180 188 181 191 197 186 177 173 171 178 178 186 215 184 192 213 198 192 189 196 187 184 194 211 183 207 214 229 269 214 204 203 171 199
312 357 300 273 254 248 200 160 101 196 164 173 207 198 191 183 183 188 193 193 196 185 176 172 175 182 188 202 218 193 211 222 191 208 205 176 186 197 213 197 200 203 205 241 210 171 183 211 215
286 280 252 245 237 236 129 88 79 92 47 12 269 203 196 186 184 181 184 184 194 181 184 178 174 182 189 191 210 218 200 242 219 205 200 183 188 197 210 203 189 201 202 233 250 224 193 197 229
242 258 260 232 220 200 97 120 97 144 95 332 314 272 236 203 192 175 182 185 184 186 184 183 173 181 186 192 201 214 226 207 242 227 206 198 205 201 211 201 200 193 211 222 220 233 232 230 228
237 303 305 176 344 131 130 109 99 79 59 41 10 18 346 262 199 184 176 186 182 184 180 185 169 181 185 198 203 207 220 229 212 230 243 198 221 228 232 182 189 209 207 209 212 220 231 227 236
236 291 357 297 197 344 132 107 113 76 41 49 38 48 353 346 93 208 165 174 170 176 178 180 169 180 187 194 202 208 204 221 227 230 215 228 250 268 168 173 190 190 208 216 199 211 231 242 248
292 333 277 273 296 323 191 98 85 80 36 83 51 21 14 10 2 195 157 170 174 179 178 179 171 178 187 201 193 206 208 208 219 254 241 232 222 216 236 204 203 199 203 201 209 223 234 224 244
190 214 234 292 340 326 123 123 132 136 98 100 96 65 28 11 30 27 81 156 157 193 180 143 155 184 190 199 206 195 194 205 207 224 234 234 236 263 194 209 227 226 223 227 221 232 239 234 234
342 343 305 317 112 64 340 100 93 72 75 63 96 88 75 55 52 41 64 60 48 108 156 134 170 205 212 183 193 190 189 195 204 213 219 215 221 228 243 242 241 236 238 238 229 244 242 237 241